OKI1011 LKPR-EDDK

Flight info

Callsign OKI1011
Flight time 0h 50m
Altitude 28000
Route LKPR N0433F320 BALT4B BALTU DCT DONAD DCT RAPET T843 DEMAB T842 EBANA T841 ERNEP ERNE2C EDDK
Aircraft A339/H-SDE2E3FGHIJ1RWXY/LB1

Departure

Time 2026-05-08 06:07
Airport Václav Havel Airport Prague (LKPR)

Arrival

Time 2026-05-08 06:58
Airport Cologne Bonn Airport (EDDK)
Time Latitude Longitude Altitude Speed Heading
2026-05-08 05:42 50.09842 14.28537 1215 ft 0 kts 169°
2026-05-08 06:01 50.09831 14.28540 1215 ft 5 kts 169°
2026-05-08 06:02 50.09819 14.28534 1215 ft 1 kts 206°
2026-05-08 06:02 50.09805 14.28503 1215 ft 7 kts 236°
2026-05-08 06:02 50.09773 14.28394 1215 ft 10 kts 258°
2026-05-08 06:02 50.09754 14.28261 1215 ft 18 kts 258°
2026-05-08 06:03 50.09726 14.28049 1215 ft 19 kts 258°
2026-05-08 06:03 50.09698 14.27842 1210 ft 22 kts 257°
2026-05-08 06:03 50.09648 14.27697 1212 ft 10 kts 212°
2026-05-08 06:03 50.09582 14.27729 1214 ft 14 kts 134°
2026-05-08 06:04 50.09492 14.27865 1217 ft 18 kts 136°
2026-05-08 06:04 50.09404 14.28000 1218 ft 18 kts 134°
2026-05-08 06:04 50.09313 14.28141 1217 ft 18 kts 135°
2026-05-08 06:04 50.09276 14.28200 1216 ft 2 kts 134°
2026-05-08 06:05 50.09274 14.28202 1216 ft 4 kts 134°
2026-05-08 06:05 50.09214 14.28270 1214 ft 16 kts 155°
2026-05-08 06:05 50.09125 14.28234 1214 ft 12 kts 218°
2026-05-08 06:05 50.09072 14.28139 1211 ft 7 kts 261°
2026-05-08 06:06 50.09086 14.28080 1211 ft 3 kts 303°
2026-05-08 06:06 50.09091 14.28072 1211 ft 1 kts 308°
2026-05-08 06:06 50.09162 14.27924 1214 ft 49 kts 307°
2026-05-08 06:06 50.09519 14.27186 1209 ft 119 kts 307°
2026-05-08 06:07 50.10150 14.25883 1209 ft 176 kts 308°
2026-05-08 06:07 50.10917 14.24308 1787 ft 185 kts 309°
2026-05-08 06:07 50.11711 14.22706 2674 ft 185 kts 308°
2026-05-08 06:07 50.12486 14.21075 3491 ft 189 kts 307°
2026-05-08 06:08 50.13267 14.19418 4263 ft 191 kts 307°
2026-05-08 06:08 50.14074 14.17765 5058 ft 191 kts 306°
2026-05-08 06:08 50.14877 14.16091 5818 ft 195 kts 305°
2026-05-08 06:08 50.15691 14.14380 6606 ft 201 kts 306°
2026-05-08 06:09 50.16551 14.12612 7309 ft 211 kts 306°
2026-05-08 06:09 50.17469 14.10707 7995 ft 222 kts 306°
2026-05-08 06:09 50.18412 14.08715 8680 ft 233 kts 306°
2026-05-08 06:09 50.19412 14.06643 9370 ft 243 kts 307°
2026-05-08 06:10 50.20452 14.04503 10073 ft 252 kts 306°
2026-05-08 06:10 50.21510 14.02264 10675 ft 262 kts 306°
2026-05-08 06:10 50.22485 13.99785 11165 ft 274 kts 289°
2026-05-08 06:10 50.22617 13.96808 11775 ft 284 kts 257°
2026-05-08 06:11 50.21927 13.93811 12353 ft 297 kts 249°
2026-05-08 06:11 50.21244 13.90707 12904 ft 310 kts 255°
2026-05-08 06:11 50.20676 13.87361 13454 ft 324 kts 255°
2026-05-08 06:11 50.19936 13.83899 14002 ft 339 kts 250°
2026-05-08 06:12 50.19079 13.80432 14490 ft 353 kts 251°
2026-05-08 06:12 50.18299 13.76660 15001 ft 367 kts 255°
2026-05-08 06:12 50.17586 13.72811 15500 ft 380 kts 253°
2026-05-08 06:12 50.16712 13.68779 16013 ft 388 kts 251°
2026-05-08 06:13 50.15780 13.64766 16591 ft 398 kts 251°
2026-05-08 06:13 50.14918 13.60612 17252 ft 406 kts 253°
2026-05-08 06:13 50.14081 13.56394 17922 ft 405 kts 253°
2026-05-08 06:13 50.13497 13.53687 18361 ft 391 kts 251°
2026-05-08 06:14 50.12668 13.50039 18915 ft 379 kts 251°
2026-05-08 06:14 50.11830 13.46162 19527 ft 377 kts 253°
2026-05-08 06:14 50.11070 13.42456 20124 ft 350 kts 253°
2026-05-08 06:14 50.10311 13.38887 20754 ft 339 kts 252°
2026-05-08 06:15 50.09545 13.35415 21392 ft 339 kts 252°
2026-05-08 06:15 50.08893 13.31906 22032 ft 335 kts 264°
2026-05-08 06:15 50.08864 13.28299 22604 ft 334 kts 272°
2026-05-08 06:15 50.08845 13.24684 23170 ft 334 kts 266°
2026-05-08 06:16 50.08617 13.21043 23731 ft 333 kts 265°
2026-05-08 06:16 50.08472 13.17446 24219 ft 332 kts 270°
2026-05-08 06:16 50.08494 13.13835 24703 ft 329 kts 270°
2026-05-08 06:16 50.08419 13.10144 25224 ft 326 kts 266°
2026-05-08 06:17 50.08127 13.03122 26239 ft 318 kts 270°
2026-05-08 06:17 50.08166 12.99721 26757 ft 310 kts 277°
2026-05-08 06:17 50.08672 12.96529 27344 ft 299 kts 288°
2026-05-08 06:18 50.09287 12.93448 27678 ft 297 kts 283°
2026-05-08 06:18 50.09712 12.90249 27970 ft 299 kts 280°
2026-05-08 06:18 50.10167 12.87017 28142 ft 308 kts 285°
2026-05-08 06:18 50.10837 12.83746 28111 ft 322 kts 287°
2026-05-08 06:19 50.11481 12.80336 28108 ft 336 kts 282°
2026-05-08 06:19 50.11971 12.76691 28104 ft 351 kts 281°
2026-05-08 06:19 50.12546 12.72896 28106 ft 368 kts 285°
2026-05-08 06:19 50.13312 12.68948 28103 ft 385 kts 286°
2026-05-08 06:20 50.14035 12.64843 28115 ft 401 kts 283°
2026-05-08 06:20 50.14656 12.60515 28108 ft 417 kts 282°
2026-05-08 06:20 50.15363 12.56028 28108 ft 433 kts 284°
2026-05-08 06:20 50.16200 12.51436 28103 ft 449 kts 285°
2026-05-08 06:21 50.17013 12.46653 28100 ft 463 kts 283°
2026-05-08 06:21 50.17755 12.41691 28109 ft 475 kts 282°
2026-05-08 06:21 50.19446 12.31533 28113 ft 480 kts 284°
2026-05-08 06:22 50.21004 12.21399 28105 ft 480 kts 282°
2026-05-08 06:22 50.22629 12.11279 28110 ft 480 kts 284°
2026-05-08 06:23 50.24185 12.01120 28108 ft 480 kts 282°
2026-05-08 06:23 50.25812 11.90831 28101 ft 481 kts 283°
2026-05-08 06:24 50.27378 11.80596 28108 ft 481 kts 282°
2026-05-08 06:24 50.28703 11.72091 28101 ft 481 kts 283°
2026-05-08 06:25 50.30268 11.61834 28109 ft 481 kts 282°
2026-05-08 06:25 50.31812 11.51641 28112 ft 481 kts 282°
2026-05-08 06:26 50.33312 11.41420 28114 ft 482 kts 282°
2026-05-08 06:26 50.34846 11.31125 28126 ft 482 kts 282°
2026-05-08 06:27 50.36355 11.20757 28120 ft 482 kts 282°
2026-05-08 06:27 50.37869 11.10444 28115 ft 482 kts 282°
2026-05-08 06:28 50.39349 11.00194 28122 ft 483 kts 282°
2026-05-08 06:28 50.40830 10.89924 28124 ft 483 kts 282°
2026-05-08 06:29 50.42083 10.81166 28129 ft 483 kts 282°
2026-05-08 06:29 50.43568 10.70708 28128 ft 477 kts 282°
2026-05-08 06:30 50.44296 10.65632 28128 ft 464 kts 282°
2026-05-08 06:30 50.45008 10.60807 28131 ft 455 kts 282°
2026-05-08 06:30 50.46380 10.51208 28125 ft 441 kts 282°
2026-05-08 06:31 50.47708 10.41947 28125 ft 428 kts 282°
2026-05-08 06:31 50.48961 10.32860 28133 ft 422 kts 282°
2026-05-08 06:32 50.50265 10.23692 28130 ft 440 kts 281°
2026-05-08 06:32 50.50920 10.18756 28126 ft 456 kts 281°
2026-05-08 06:32 50.51594 10.13822 28121 ft 471 kts 282°
2026-05-08 06:33 50.53031 10.03652 28132 ft 459 kts 281°
2026-05-08 06:33 50.53680 9.98698 28129 ft 445 kts 281°
2026-05-08 06:33 50.54400 9.93844 28135 ft 457 kts 285°
2026-05-08 06:34 50.55277 9.89099 28135 ft 471 kts 285°
2026-05-08 06:34 50.56165 9.84067 28140 ft 483 kts 284°
2026-05-08 06:34 50.57908 9.73817 28136 ft 485 kts 285°
2026-05-08 06:35 50.59427 9.65333 28132 ft 484 kts 284°
2026-05-08 06:35 50.61172 9.55017 28121 ft 481 kts 285°
2026-05-08 06:36 50.62064 9.50018 28125 ft 466 kts 285°
2026-05-08 06:36 50.62899 9.45135 28123 ft 458 kts 284°
2026-05-08 06:36 50.64541 9.35422 28119 ft 459 kts 284°
2026-05-08 06:37 50.66215 9.25638 28134 ft 459 kts 284°
2026-05-08 06:37 50.67028 9.20750 27917 ft 463 kts 284°
2026-05-08 06:37 50.67866 9.15845 27535 ft 461 kts 284°
2026-05-08 06:38 50.68697 9.10974 27150 ft 456 kts 284°
2026-05-08 06:38 50.69507 9.06083 26758 ft 453 kts 284°
2026-05-08 06:38 50.70324 9.01194 26376 ft 461 kts 284°
2026-05-08 06:38 50.71184 8.96252 26002 ft 474 kts 285°
2026-05-08 06:39 50.72041 8.91177 25627 ft 483 kts 284°
2026-05-08 06:39 50.72870 8.85988 25264 ft 490 kts 283°
2026-05-08 06:39 50.73725 8.80759 24907 ft 494 kts 284°
2026-05-08 06:39 50.74618 8.75509 24550 ft 495 kts 284°
2026-05-08 06:40 50.75491 8.70237 24198 ft 497 kts 284°
2026-05-08 06:40 50.76336 8.64942 23835 ft 498 kts 284°
2026-05-08 06:40 50.77185 8.59661 22224 ft 480 kts 283°
2026-05-08 06:40 50.77973 8.54731 21785 ft 440 kts 284°
2026-05-08 06:41 50.78731 8.50148 21107 ft 413 kts 284°
2026-05-08 06:41 50.79438 8.45877 21174 ft 393 kts 284°
2026-05-08 06:41 50.80130 8.41523 20283 ft 401 kts 283°
2026-05-08 06:41 50.80828 8.37113 19640 ft 401 kts 283°
2026-05-08 06:42 50.81562 8.32630 18990 ft 401 kts 284°
2026-05-08 06:42 50.82232 8.28486 18398 ft 401 kts 283°
2026-05-08 06:42 50.82912 8.24153 17705 ft 401 kts 283°
2026-05-08 06:42 50.83591 8.19882 17027 ft 401 kts 283°
2026-05-08 06:43 50.84283 8.15609 16365 ft 400 kts 283°
2026-05-08 06:43 50.84959 8.11334 15742 ft 400 kts 283°
2026-05-08 06:43 50.85621 8.07088 15242 ft 396 kts 283°
2026-05-08 06:43 50.86306 8.02846 14793 ft 397 kts 284°
2026-05-08 06:44 50.86973 7.98625 14360 ft 393 kts 283°
2026-05-08 06:44 50.87610 7.94435 13893 ft 389 kts 283°
2026-05-08 06:44 50.88263 7.90286 13364 ft 387 kts 283°
2026-05-08 06:44 50.88929 7.86128 12838 ft 384 kts 283°
2026-05-08 06:45 50.89558 7.82048 12336 ft 381 kts 283°
2026-05-08 06:45 50.90172 7.78019 11858 ft 378 kts 283°
2026-05-08 06:45 50.90803 7.74002 10665 ft 371 kts 283°
2026-05-08 06:45 50.91384 7.70313 11132 ft 313 kts 283°
2026-05-08 06:46 50.91879 7.67068 10849 ft 305 kts 282°
2026-05-08 06:46 50.92393 7.63672 9683 ft 322 kts 282°
2026-05-08 06:46 50.92916 7.60316 9389 ft 306 kts 283°
2026-05-08 06:46 50.93424 7.57029 8736 ft 308 kts 283°
2026-05-08 06:47 50.93918 7.53748 7966 ft 307 kts 283°
2026-05-08 06:47 50.94253 7.51529 7579 ft 293 kts 283°
2026-05-08 06:47 50.94704 7.48642 7581 ft 256 kts 284°
2026-05-08 06:47 50.95122 7.45897 6737 ft 254 kts 283°
2026-05-08 06:48 50.95631 7.42471 6082 ft 232 kts 284°
2026-05-08 06:48 50.95888 7.40832 5715 ft 223 kts 284°
2026-05-08 06:48 50.96254 7.38488 5162 ft 211 kts 283°
2026-05-08 06:48 50.96572 7.36278 4871 ft 198 kts 283°
2026-05-08 06:49 50.96898 7.34100 4323 ft 208 kts 284°
2026-05-08 06:49 50.97247 7.31885 4088 ft 200 kts 283°
2026-05-08 06:49 50.97585 7.29770 4134 ft 196 kts 284°
2026-05-08 06:49 50.97882 7.27722 4133 ft 189 kts 282°
2026-05-08 06:50 50.98174 7.25583 4112 ft 205 kts 283°
2026-05-08 06:50 50.98515 7.23434 4085 ft 199 kts 284°
2026-05-08 06:50 50.98842 7.21317 3993 ft 195 kts 283°
2026-05-08 06:50 50.99138 7.19272 4003 ft 186 kts 283°
2026-05-08 06:51 50.99435 7.17299 4001 ft 181 kts 284°
2026-05-08 06:51 50.99726 7.15364 4008 ft 180 kts 283°
2026-05-08 06:51 51.00004 7.13459 4009 ft 180 kts 283°
2026-05-08 06:51 51.00296 7.11519 4011 ft 180 kts 284°
2026-05-08 06:52 51.00591 7.09583 4012 ft 180 kts 283°
2026-05-08 06:52 51.00877 7.07640 4013 ft 181 kts 283°
2026-05-08 06:52 51.01164 7.05682 4007 ft 180 kts 283°
2026-05-08 06:52 51.01453 7.03734 4012 ft 180 kts 283°
2026-05-08 06:53 51.01742 7.01799 4007 ft 180 kts 283°
2026-05-08 06:53 51.01987 6.99857 4001 ft 179 kts 273°
2026-05-08 06:53 51.01647 6.97889 3475 ft 198 kts 231°
2026-05-08 06:53 51.00473 6.96878 2996 ft 198 kts 184°
2026-05-08 06:54 50.99143 6.97355 2490 ft 197 kts 156°
2026-05-08 06:54 50.98024 6.98474 2036 ft 186 kts 141°
2026-05-08 06:54 50.97109 6.99762 2010 ft 168 kts 139°
2026-05-08 06:54 50.96247 7.00953 1998 ft 160 kts 139°
2026-05-08 06:55 50.95450 7.02123 1993 ft 154 kts 137°
2026-05-08 06:55 50.94681 7.03267 2003 ft 149 kts 139°
2026-05-08 06:55 50.93901 7.04392 1880 ft 152 kts 139°
2026-05-08 06:55 50.93151 7.05508 1666 ft 147 kts 138°
2026-05-08 06:56 50.92380 7.06619 1459 ft 148 kts 139°
2026-05-08 06:56 50.91623 7.07683 1238 ft 144 kts 137°
2026-05-08 06:56 50.90896 7.08774 1040 ft 144 kts 136°
2026-05-08 06:56 50.90157 7.09843 835 ft 144 kts 137°
2026-05-08 06:57 50.89424 7.10912 644 ft 142 kts 135°
2026-05-08 06:57 50.88696 7.11980 448 ft 140 kts 137°
2026-05-08 06:57 50.87970 7.13022 294 ft 141 kts 136°
2026-05-08 06:57 50.87283 7.14021 269 ft 108 kts 137°
2026-05-08 06:58 50.86914 7.14547 273 ft 51 kts 138°
2026-05-08 06:58 50.86672 7.14897 277 ft 44 kts 137°
2026-05-08 06:58 50.86459 7.15194 282 ft 36 kts 146°
2026-05-08 06:58 50.86255 7.15324 284 ft 24 kts 170°
2026-05-08 06:59 50.86210 7.15336 284 ft 0 kts 169°
2026-05-08 07:00 50.86201 7.15339 284 ft 6 kts 169°
2026-05-08 07:00 50.86111 7.15344 283 ft 15 kts 195°
2026-05-08 07:00 50.86048 7.15223 283 ft 14 kts 258°
2026-05-08 07:01 50.86075 7.15096 285 ft 12 kts 309°
2026-05-08 07:01 50.86139 7.15000 281 ft 14 kts 317°
2026-05-08 07:01 50.86215 7.14889 280 ft 16 kts 317°
2026-05-08 07:01 50.86301 7.14765 278 ft 18 kts 318°
2026-05-08 07:02 50.86401 7.14621 275 ft 20 kts 316°
2026-05-08 07:02 50.86513 7.14456 269 ft 24 kts 317°
2026-05-08 07:02 50.86633 7.14283 267 ft 24 kts 318°
2026-05-08 07:02 50.86725 7.14124 267 ft 9 kts 285°
2026-05-08 07:03 50.86698 7.14012 265 ft 18 kts 245°
2026-05-08 07:03 50.86654 7.13869 261 ft 23 kts 244°
2026-05-08 07:03 50.86580 7.13629 258 ft 24 kts 246°
2026-05-08 07:03 50.86508 7.13390 259 ft 18 kts 243°
2026-05-08 07:04 50.86531 7.13243 257 ft 15 kts 314°
2026-05-08 07:04 50.86630 7.13098 253 ft 22 kts 317°
2026-05-08 07:04 50.86748 7.12923 248 ft 25 kts 316°
2026-05-08 07:04 50.86879 7.12733 245 ft 26 kts 319°
2026-05-08 07:05 50.87017 7.12538 243 ft 27 kts 317°
2026-05-08 07:05 50.87140 7.12339 239 ft 22 kts 303°
2026-05-08 07:05 50.87118 7.12181 237 ft 13 kts 227°
2026-05-08 07:05 50.87052 7.12087 238 ft 11 kts 208°
2026-05-08 07:06 50.86954 7.12052 237 ft 20 kts 179°
2026-05-08 07:06 50.86809 7.12101 236 ft 21 kts 165°
2026-05-08 07:06 50.86664 7.12164 237 ft 22 kts 165°
2026-05-08 07:06 50.86511 7.12224 235 ft 22 kts 166°
2026-05-08 07:07 50.86370 7.12280 236 ft 12 kts 171°
2026-05-08 07:07 50.86326 7.12217 240 ft 9 kts 251°
2026-05-08 07:07 50.86308 7.12117 235 ft 7 kts 243°
2026-05-08 07:07 50.86280 7.12078 239 ft 3 kts 214°
2026-05-08 07:08 50.86247 7.12046 237 ft 8 kts 211°
2026-05-08 07:08 50.86228 7.12028 237 ft 0 kts 210°